,,,PA_Meas_PMT16A,,PR_Meas_QMR101_102,,RH_Meas_QMH101,,SR_Meas_QMS101,,TA_Meas_QMH101,,GenWind,,GenWind,
date,time,status,PA,status,PR,status,RH,status,SR,status,TA,status,DirAvg,status,SpdAvg,
2012-05-09, 00:00:05,VALID,1010.83,VALID,0,VALID,104,VALID,0,VALID,24.9023,VALID,47,VALID,0,
2012-05-09, 00:01:05,VALID,1010.83,VALID,0,VALID,104,VALID,0,VALID,24.9218,VALID,47,VALID,0,
2012-05-09, 00:02:05,VALID,1010.8,VALID,0,VALID,104,VALID,0,VALID,24.9023,VALID,47,VALID,0,
2012-05-09, 00:03:05,VALID,1010.79,VALID,0,VALID,104,VALID,0,VALID,24.9023,VALID,47,VALID,0,
2012-05-09, 00:04:05,VALID,1010.75,VALID,0,VALID,104,VALID,0,VALID,24.8828,VALID,47,VALID,0,
2012-05-09, 00:05:05,VALID,1010.73,VALID,0,VALID,104,VALID,0,VALID,24.8828,VALID,47,VALID,0,
2012-05-09, 00:06:05,VALID,1010.73,VALID,0,VALID,104,VALID,0,VALID,24.8828,VALID,47,VALID,0,
2012-05-09, 00:07:05,VALID,1010.75,VALID,0,VALID,104,VALID,0.112112,VALID,24.8633,VALID,47,VALID,0,
2012-05-09, 00:08:05,VALID,1010.74,VALID,0,VALID,104,VALID,0,VALID,24.8633,VALID,47,VALID,0.0117188,
2012-05-09, 00:09:05,VALID,1010.73,VALID,0,VALID,104,VALID,0,VALID,24.8633,VALID,47,VALID,0,
2012-05-09, 00:10:05,VALID,1010.69,VALID,0,VALID,104,VALID,0,VALID,24.8225,VALID,47,VALID,0,
2012-05-09, 00:11:05,VALID,1010.68,VALID,0,VALID,104,VALID,0,VALID,24.8438,VALID,47,VALID,0,
2012-05-09, 00:12:05,VALID,1010.66,VALID,0,VALID,104,VALID,0,VALID,24.8438,VALID,47,VALID,0,
2012-05-09, 00:13:05,VALID,1010.66,VALID,0,VALID,104,VALID,0,VALID,24.8244,VALID,47,VALID,0,
2012-05-09, 00:14:05,VALID,1010.64,VALID,0,VALID,104,VALID,0,VALID,24.8244,VALID,47,VALID,0,
2012-05-09, 00:15:05,VALID,1010.63,VALID,0,VALID,104,VALID,0,VALID,24.8049,VALID,47,VALID,0,
2012-05-09, 00:16:05,VALID,1010.61,VALID,0,VALID,104,VALID,0,VALID,24.7659,VALID,47,VALID,0,
2012-05-09, 00:17:05,VALID,1010.6,VALID,0,VALID,104,VALID,0,VALID,24.7659,VALID,47,VALID,0,
2012-05-09, 00:18:05,VALID,1010.57,VALID,0,VALID,104,VALID,0.112112,VALID,24.7464,VALID,47,VALID,0,
2012-05-09, 00:19:05,VALID,1010.57,VALID,0,VALID,104,VALID,0,VALID,24.7269,VALID,47,VALID,0.199609,
2012-05-09, 00:20:05,VALID,1010.54,VALID,0,VALID,104,VALID,0,VALID,24.7269,VALID,47,VALID,0,
2012-05-09, 00:21:05,VALID,1010.55,VALID,0,VALID,104,VALID,0,VALID,24.7074,VALID,47,VALID,0,
2012-05-09, 00:22:05,VALID,1010.53,VALID,0,VALID,104,VALID,0,VALID,24.6879,VALID,47,VALID,0,
2012-05-09, 00:23:05,VALID,1010.54,VALID,0,VALID,104,VALID,0,VALID,24.6879,VALID,47,VALID,0.311719,
2012-05-09, 00:24:05,VALID,1010.54,VALID,0,VALID,104,VALID,0,VALID,24.6684,VALID,47,VALID,0.316797,
2012-05-09, 00:25:05,VALID,1010.56,VALID,0,VALID,104,VALID,0,VALID,24.6684,VALID,47,VALID,0,
2012-05-09, 00:26:05,VALID,1010.54,VALID,0,VALID,104,VALID,0,VALID,24.6489,VALID,47,VALID,0.337109,
2012-05-09, 00:27:05,VALID,1010.53,VALID,0,VALID,104,VALID,0,VALID,24.6489,VALID,47,VALID,0.169922,
2012-05-09, 00:28:05,VALID,1010.52,VALID,0,VALID,104,VALID,0,VALID,24.6276,VALID,47,VALID,0.248047,
2012-05-09, 00:29:05,VALID,1010.51,VALID,0,VALID,104,VALID,0,VALID,24.6684,VALID,47,VALID,0.0328125,
2012-05-09, 00:30:05,VALID,1010.48,VALID,0,VALID,104,VALID,0,VALID,24.6684,VALID,47,VALID,0,
2012-05-09, 00:31:05,VALID,1010.45,VALID,0,VALID,104,VALID,0.112112,VALID,24.6879,VALID,47,VALID,0.0546875,
2012-05-09, 00:32:05,VALID,1010.44,VALID,0,VALID,104,VALID,0,VALID,24.6666,VALID,47,VALID,0.114453,
2012-05-09, 00:33:05,VALID,1010.43,VALID,0,VALID,104,VALID,0,VALID,24.6879,VALID,47,VALID,0.109766,
2012-05-09, 00:34:05,VALID,1010.4,VALID,0,VALID,104,VALID,0,VALID,24.6666,VALID,47,VALID,0.233203,
2012-05-09, 00:35:05,VALID,1010.41,VALID,0,VALID,104,VALID,0,VALID,24.6879,VALID,47,VALID,0.165234,
2012-05-09, 00:36:05,VALID,1010.41,VALID,0,VALID,104,VALID,0,VALID,24.7074,VALID,47,VALID,0.00195313,
2012-05-09, 00:37:05,VALID,1010.39,VALID,0,VALID,104,VALID,0,VALID,24.686,VALID,47,VALID,0,
2012-05-09, 00:38:05,VALID,1010.43,VALID,0,VALID,104,VALID,0,VALID,24.6879,VALID,47,VALID,0,
2012-05-09, 00:39:05,VALID,1010.42,VALID,0,VALID,104,VALID,0,VALID,24.7074,VALID,47,VALID,0,
2012-05-09, 00:40:05,VALID,1010.42,VALID,0,VALID,104,VALID,0,VALID,24.7074,VALID,47,VALID,0,
2012-05-09, 00:41:05,VALID,1010.43,VALID,0,VALID,104,VALID,0,VALID,24.6879,VALID,47,VALID,0,
2012-05-09, 00:42:05,VALID,1010.42,VALID,0,VALID,104,VALID,0,VALID,24.6879,VALID,47,VALID,0.374219,
2012-05-09, 00:43:05,VALID,1010.42,VALID,0,VALID,104,VALID,0,VALID,24.6879,VALID,47,VALID,0,
2012-05-09, 00:44:05,VALID,1010.42,VALID,0,VALID,104,VALID,0,VALID,24.6879,VALID,47,VALID,0,
2012-05-09, 00:45:05,VALID,1010.44,VALID,0,VALID,104,VALID,0,VALID,24.7074,VALID,47,VALID,0,
2012-05-09, 00:46:05,VALID,1010.42,VALID,0,VALID,104,VALID,0,VALID,24.6879,VALID,47,VALID,0,
2012-05-09, 00:47:05,VALID,1010.43,VALID,0,VALID,104,VALID,0,VALID,24.686,VALID,47,VALID,0,
2012-05-09, 00:48:05,VALID,1010.45,VALID,0,VALID,104,VALID,0,VALID,24.7269,VALID,47,VALID,0,
2012-05-09, 00:49:05,VALID,1010.45,VALID,0,VALID,104,VALID,0,VALID,24.7464,VALID,47,VALID,0,
2012-05-09, 00:50:05,VALID,1010.46,VALID,0,VALID,104,VALID,0,VALID,24.7464,VALID,47,VALID,0,
2012-05-09, 00:51:05,VALID,1010.49,VALID,0,VALID,104,VALID,0,VALID,24.7464,VALID,47,VALID,0,
2012-05-09, 00:52:05,VALID,1010.48,VALID,0,VALID,104,VALID,0,VALID,24.7055,VALID,47,VALID,0,
2012-05-09, 00:53:05,VALID,1010.49,VALID,0,VALID,104,VALID,0,VALID,24.7464,VALID,47,VALID,0,
2012-05-09, 00:54:05,VALID,1010.51,VALID,0,VALID,104,VALID,0,VALID,24.7464,VALID,47,VALID,0,
2012-05-09, 00:55:05,VALID,1010.54,VALID,0,VALID,104,VALID,0,VALID,24.7445,VALID,47,VALID,0.115234,
2012-05-09, 00:56:05,VALID,1010.53,VALID,0,VALID,104,VALID,0,VALID,24.7659,VALID,47,VALID,0.188672,
2012-05-09, 00:57:05,VALID,1010.55,VALID,0,VALID,104,VALID,0,VALID,24.7835,VALID,47,VALID,0.379687,
2012-05-09, 00:58:05,VALID,1010.54,VALID,0,VALID,104,VALID,0,VALID,24.8244,VALID,47,VALID,0.508203,
2012-05-09, 00:59:05,VALID,1010.59,VALID,0,VALID,104,VALID,0,VALID,24.8438,VALID,154,VALID,0.521094,
2012-05-09, 01:00:05,VALID,1010.52,VALID,0,VALID,104,VALID,0.112112,VALID,24.8633,VALID,154,VALID,0.602344,
2012-05-09, 01:01:05,VALID,1010.51,VALID,0,VALID,104,VALID,0,VALID,24.8828,VALID,154,VALID,0.442578,
2012-05-09, 01:02:05,VALID,1010.46,VALID,0,VALID,104,VALID,0,VALID,24.8828,VALID,154,VALID,0.24375,
2012-05-09, 01:03:05,VALID,1010.41,VALID,0,VALID,104,VALID,0,VALID,24.8615,VALID,154,VALID,0.408594,
2012-05-09, 01:04:05,VALID,1010.36,VALID,0,VALID,104,VALID,0,VALID,24.8615,VALID,89,VALID,0.639844,
2012-05-09, 01:05:05,VALID,1010.3,VALID,0,VALID,104,VALID,0,VALID,24.8633,VALID,72,VALID,0.523438,
2012-05-09, 01:06:05,VALID,1010.3,VALID,0,VALID,104,VALID,0,VALID,24.8438,VALID,71,VALID,0.541016,
2012-05-09, 01:07:05,VALID,1010.24,VALID,0,VALID,104,VALID,0,VALID,24.8244,VALID,71,VALID,0.432422,
2012-05-09, 01:08:05,VALID,1010.2,VALID,0,VALID,104,VALID,0,VALID,24.8262,VALID,71,VALID,0.388281,
2012-05-09, 01:09:05,VALID,1010.18,VALID,0,VALID,104,VALID,0,VALID,24.7854,VALID,71,VALID,0.245703,
2012-05-09, 01:10:05,VALID,1010.15,VALID,0,VALID,104,VALID,0,VALID,24.7464,VALID,71,VALID,0.270312,
2012-05-09, 01:11:05,VALID,1010.12,VALID,0,VALID,104,VALID,0,VALID,24.7269,VALID,71,VALID,0.295703,
2012-05-09, 01:12:05,VALID,1010.11,VALID,0,VALID,104,VALID,0,VALID,24.686,VALID,71,VALID,0.842188,
2012-05-09, 01:13:05,VALID,1010.08,VALID,0,VALID,104,VALID,0,VALID,24.7074,VALID,75,VALID,0.921875,
2012-05-09, 01:14:05,VALID,1010.08,VALID,0,VALID,104,VALID,0,VALID,24.7074,VALID,82,VALID,0.569922,
2012-05-09, 01:15:05,VALID,1010.11,VALID,0,VALID,104,VALID,0,VALID,24.7074,VALID,82,VALID,0.280469,
2012-05-09, 01:16:05,VALID,1010.11,VALID,0,VALID,104,VALID,0,VALID,24.7074,VALID,82,VALID,0.137109,
2012-05-09, 01:17:05,VALID,1010.11,VALID,0,VALID,104,VALID,0,VALID,24.7074,VALID,75,VALID,0.376953,
2012-05-09, 01:18:05,VALID,1010.12,VALID,0,VALID,104,VALID,0,VALID,24.6879,VALID,75,VALID,0.208984,
2012-05-09, 01:19:05,VALID,1010.14,VALID,0,VALID,104,VALID,0,VALID,24.7074,VALID,75,VALID,0.0148437,
2012-05-09, 01:20:05,VALID,1010.14,VALID,0,VALID,104,VALID,0,VALID,24.7074,VALID,75,VALID,0.360938,
2012-05-09, 01:21:05,VALID,1010.19,VALID,0,VALID,104,VALID,0,VALID,24.7074,VALID,75,VALID,0.364453,
2012-05-09, 01:22:05,VALID,1010.15,VALID,0,VALID,104,VALID,0,VALID,24.7074,VALID,75,VALID,0.428906,
2012-05-09, 01:23:05,VALID,1010.18,VALID,0,VALID,104,VALID,0,VALID,24.6879,VALID,121,VALID,0.889063,
2012-05-09, 01:24:05,VALID,1010.16,VALID,0,VALID,104,VALID,0,VALID,24.6684,VALID,122,VALID,0.438672,
2012-05-09, 01:25:05,VALID,1010.19,VALID,0,VALID,104,VALID,0,VALID,24.6489,VALID,122,VALID,0.853906,
2012-05-09, 01:26:05,VALID,1010.2,VALID,0,VALID,104,VALID,0,VALID,24.6703,VALID,122,VALID,0.225,
2012-05-09, 01:27:05,VALID,1010.21,VALID,0,VALID,104,VALID,0,VALID,24.6489,VALID,122,VALID,0.178906,
2012-05-09, 01:28:05,VALID,1010.18,VALID,0,VALID,104,VALID,0,VALID,24.6489,VALID,122,VALID,0.443359,
2012-05-09, 01:29:05,VALID,1010.22,VALID,0,VALID,104,VALID,0,VALID,24.6294,VALID,97,VALID,0.683203,
2012-05-09, 01:30:05,VALID,1010.19,VALID,0,VALID,104,VALID,0,VALID,24.6294,VALID,86,VALID,0.381641,
2012-05-09, 01:31:05,VALID,1010.19,VALID,0,VALID,104,VALID,0,VALID,24.6294,VALID,55,VALID,0.781641,
2012-05-09, 01:32:05,VALID,1010.22,VALID,0,VALID,104,VALID,0,VALID,24.6294,VALID,55,VALID,0.624609,
2012-05-09, 01:33:04,VALID,1010.25,VALID,0,VALID,104,VALID,0,VALID,24.6294,VALID,54,VALID,0.323047,
2012-05-09, 01:34:04,VALID,1010.23,VALID,0,VALID,104,VALID,0,VALID,24.6099,VALID,54,VALID,0.245703,
2012-05-09, 01:35:04,VALID,1010.24,VALID,0,VALID,104,VALID,0,VALID,24.6099,VALID,54,VALID,0.167578,
2012-05-09, 01:36:04,VALID,1010.23,VALID,0,VALID,104,VALID,0,VALID,24.6118,VALID,54,VALID,0,
2012-05-09, 01:37:04,VALID,1010.21,VALID,0,VALID,104,VALID,0,VALID,24.6099,VALID,54,VALID,0,
2012-05-09, 01:38:04,VALID,1010.22,VALID,0,VALID,104,VALID,0,VALID,24.5905,VALID,54,VALID,0.000390625,
2012-05-09, 01:39:04,VALID,1010.21,VALID,0,VALID,104,VALID,0,VALID,24.5905,VALID,90,VALID,0.771484,
2012-05-09, 01:40:04,VALID,1010.22,VALID,0,VALID,104,VALID,0,VALID,24.5905,VALID,90,VALID,0.954297,
2012-05-09, 01:41:04,VALID,1010.21,VALID,0,VALID,104,VALID,0,VALID,24.5905,VALID,80,VALID,0.571875,
2012-05-09, 01:42:04,VALID,1010.22,VALID,0,VALID,104,VALID,0,VALID,24.571,VALID,60,VALID,0.420703,
2012-05-09, 01:43:04,VALID,1010.24,VALID,0,VALID,104,VALID,0,VALID,24.571,VALID,60,VALID,0.09375,
2012-05-09, 01:44:04,VALID,1010.26,VALID,0,VALID,104,VALID,0,VALID,24.5905,VALID,58,VALID,0.545703,
2012-05-09, 01:45:04,VALID,1010.25,VALID,0,VALID,104,VALID,0,VALID,24.6099,VALID,206,VALID,0.731641,
2012-05-09, 01:46:04,VALID,1010.31,VALID,0,VALID,104,VALID,0,VALID,24.6684,VALID,228,VALID,0.358594,
2012-05-09, 01:47:04,VALID,1010.28,VALID,0,VALID,104,VALID,0,VALID,24.6879,VALID,200,VALID,0.522656,
2012-05-09, 01:48:04,VALID,1010.26,VALID,0,VALID,104,VALID,0,VALID,24.7269,VALID,200,VALID,0.250781,
2012-05-09, 01:49:04,VALID,1010.22,VALID,0,VALID,104,VALID,0,VALID,24.7269,VALID,200,VALID,0.339844,
2012-05-09, 01:50:04,VALID,1010.22,VALID,0,VALID,104,VALID,0,VALID,24.725,VALID,97,VALID,0.805469,
2012-05-09, 01:51:04,VALID,1010.22,VALID,0,VALID,104,VALID,0,VALID,24.7269,VALID,78,VALID,0.68125,
2012-05-09, 01:52:04,VALID,1010.21,VALID,0,VALID,104,VALID,0,VALID,24.7464,VALID,56,VALID,0.714453,
2012-05-09, 01:53:04,VALID,1010.24,VALID,0,VALID,104,VALID,0,VALID,24.7269,VALID,48,VALID,0.266406,
2012-05-09, 01:54:04,VALID,1010.26,VALID,0,VALID,104,VALID,0,VALID,24.7464,VALID,48,VALID,0.519531,
2012-05-09, 01:55:04,VALID,1010.29,VALID,0,VALID,104,VALID,0,VALID,24.7055,VALID,48,VALID,0.264453,
2012-05-09, 01:56:04,VALID,1010.31,VALID,0,VALID,104,VALID,0,VALID,24.7269,VALID,48,VALID,0.589453,
2012-05-09, 01:57:04,VALID,1010.34,VALID,0,VALID,104,VALID,0,VALID,24.7055,VALID,48,VALID,0.360547,
2012-05-09, 01:58:04,VALID,1010.35,VALID,0,VALID,104,VALID,0.112112,VALID,24.7269,VALID,48,VALID,0.4625,
2012-05-09, 01:59:04,VALID,1010.35,VALID,0,VALID,104,VALID,0,VALID,24.7074,VALID,48,VALID,0.5125,
2012-05-09, 02:00:04,VALID,1010.34,VALID,0,VALID,104,VALID,0,VALID,24.6879,VALID,48,VALID,0.581641,
2012-05-09, 02:01:04,VALID,1010.32,VALID,0,VALID,104,VALID,0,VALID,24.6666,VALID,48,VALID,0.319141,
2012-05-09, 02:02:04,VALID,1010.33,VALID,0,VALID,104,VALID,0,VALID,24.6489,VALID,91,VALID,0.9375,
2012-05-09, 02:03:04,VALID,1010.31,VALID,0,VALID,104,VALID,0,VALID,24.6081,VALID,69,VALID,1.07227,
2012-05-09, 02:04:04,VALID,1010.3,VALID,0,VALID,104,VALID,0,VALID,24.5905,VALID,63,VALID,0.617578,
2012-05-09, 02:05:04,VALID,1010.31,VALID,0,VALID,104,VALID,0,VALID,24.6099,VALID,78,VALID,1.075,
2012-05-09, 02:06:04,VALID,1010.32,VALID,0,VALID,104,VALID,0,VALID,24.5905,VALID,70,VALID,0.783984,
2012-05-09, 02:07:04,VALID,1010.38,VALID,0,VALID,104,VALID,0,VALID,24.5905,VALID,70,VALID,0.351953,
2012-05-09, 02:08:04,VALID,1010.43,VALID,0,VALID,104,VALID,0,VALID,24.571,VALID,22,VALID,0.750391,
2012-05-09, 02:09:04,VALID,1010.51,VALID,0,VALID,104,VALID,0,VALID,24.5905,VALID,320,VALID,1.10391,
2012-05-09, 02:10:04,VALID,1010.61,VALID,0,VALID,104,VALID,0,VALID,24.6099,VALID,299,VALID,1.12109,
2012-05-09, 02:11:04,VALID,1010.62,VALID,0,VALID,104,VALID,0,VALID,24.6294,VALID,307,VALID,0.769531,
2012-05-09, 02:12:04,VALID,1010.56,VALID,0,VALID,104,VALID,0,VALID,24.6489,VALID,280,VALID,0.627344,
2012-05-09, 02:13:04,VALID,1010.47,VALID,0,VALID,104,VALID,0,VALID,24.6294,VALID,42,VALID,0.770312,
2012-05-09, 02:14:04,VALID,1010.51,VALID,0,VALID,104,VALID,0,VALID,24.6294,VALID,18,VALID,0.892187,
2012-05-09, 02:15:04,VALID,1010.5,VALID,0,VALID,104,VALID,0,VALID,24.6489,VALID,11,VALID,0.502734,
2012-05-09, 02:16:04,VALID,1010.56,VALID,0,VALID,104,VALID,0,VALID,24.6489,VALID,306,VALID,0.954687,
2012-05-09, 02:17:04,VALID,1010.57,VALID,0,VALID,104,VALID,0,VALID,24.6684,VALID,15,VALID,0.484766,
2012-05-09, 02:18:04,VALID,1010.56,VALID,0,VALID,104,VALID,0,VALID,24.6489,VALID,18,VALID,0.495313,
2012-05-09, 02:19:04,VALID,1010.57,VALID,0,VALID,104,VALID,0,VALID,24.6898,VALID,329,VALID,0.193359,
2012-05-09, 02:20:04,VALID,1010.55,VALID,0,VALID,104,VALID,0,VALID,24.6489,VALID,11,VALID,0.124609,
2012-05-09, 02:21:04,VALID,1010.52,VALID,0,VALID,104,VALID,0,VALID,24.6684,VALID,11,VALID,0.141406,
2012-05-09, 02:22:04,VALID,1010.48,VALID,0,VALID,104,VALID,0,VALID,24.6489,VALID,33,VALID,0.635547,
2012-05-09, 02:23:04,VALID,1010.46,VALID,0,VALID,104,VALID,0,VALID,24.6099,VALID,341,VALID,1.35898,
2012-05-09, 02:24:04,VALID,1010.43,VALID,0,VALID,104,VALID,0,VALID,24.5515,VALID,358,VALID,1.73008,
2012-05-09, 02:25:04,VALID,1010.42,VALID,0.5,VALID,104,VALID,0,VALID,24.4735,VALID,8,VALID,1.40156,
2012-05-09, 02:26:04,VALID,1010.35,VALID,0.5,VALID,104,VALID,0,VALID,24.4345,VALID,252,VALID,0.238672,
2012-05-09, 02:27:04,VALID,1010.31,VALID,0.5,VALID,104,VALID,0,VALID,24.3761,VALID,262,VALID,0.319141,
2012-05-09, 02:28:04,VALID,1010.33,VALID,0.5,VALID,104,VALID,0,VALID,24.2981,VALID,18,VALID,0.800781,
2012-05-09, 02:29:04,VALID,1010.27,VALID,0,VALID,104,VALID,0,VALID,24.2202,VALID,47,VALID,1.55625,
2012-05-09, 02:30:04,VALID,1010.28,VALID,0,VALID,104,VALID,0,VALID,24.1617,VALID,40,VALID,0.262109,
2012-05-09, 02:31:04,VALID,1010.32,VALID,0,VALID,104,VALID,0,VALID,24.0253,VALID,9,VALID,2.06445,
2012-05-09, 02:32:04,VALID,1010.32,VALID,0.5,VALID,104,VALID,0,VALID,23.8694,VALID,336,VALID,0.625781,
2012-05-09, 02:33:04,VALID,1010.31,VALID,0,VALID,104,VALID,0,VALID,23.7932,VALID,247,VALID,0.638281,
2012-05-09, 02:34:04,VALID,1010.39,VALID,0,VALID,104,VALID,0,VALID,23.694,VALID,344,VALID,1.29414,
2012-05-09, 02:35:04,VALID,1010.35,VALID,0,VALID,104,VALID,0,VALID,23.6179,VALID,21,VALID,1.20664,
2012-05-09, 02:36:04,VALID,1010.19,VALID,0.5,VALID,104,VALID,0,VALID,23.4992,VALID,27,VALID,1.93633,
2012-05-09, 02:37:04,VALID,1010.07,VALID,1,VALID,104,VALID,0,VALID,23.4407,VALID,33,VALID,1.89727,
2012-05-09, 02:38:04,VALID,1010,VALID,0.5,VALID,103.664,VALID,0,VALID,23.3238,VALID,25,VALID,2.34531,
2012-05-09, 02:39:04,VALID,1009.91,VALID,1,VALID,95.1618,VALID,0,VALID,23.2459,VALID,41,VALID,2.23164,
2012-05-09, 02:40:04,VALID,1009.89,VALID,0.5,VALID,93.507,VALID,0,VALID,23.2069,VALID,57,VALID,1.32109,
2012-05-09, 02:41:04,VALID,1009.86,VALID,0,VALID,96.8089,VALID,0,VALID,23.1679,VALID,73,VALID,1.67969,
2012-05-09, 02:42:04,VALID,1009.93,VALID,0,VALID,100.21,VALID,0,VALID,23.1679,VALID,82,VALID,1.70352,
2012-05-09, 02:43:04,VALID,1009.95,VALID,0.5,VALID,103.68,VALID,0,VALID,23.1485,VALID,57,VALID,1.54375,
2012-05-09, 02:44:04,VALID,1009.94,VALID,0.5,VALID,104,VALID,0,VALID,23.1095,VALID,68,VALID,2.86406,
2012-05-09, 02:45:04,VALID,1009.97,VALID,0.5,VALID,104,VALID,0,VALID,23.0316,VALID,48,VALID,2.0918,
2012-05-09, 02:46:04,VALID,1009.91,VALID,0.5,VALID,104,VALID,0,VALID,22.9926,VALID,64,VALID,1.74766,
2012-05-09, 02:47:04,VALID,1009.83,VALID,0.5,VALID,104,VALID,0,VALID,22.9926,VALID,98,VALID,2.05547,
2012-05-09, 02:48:04,VALID,1009.75,VALID,0,VALID,104,VALID,0,VALID,22.9926,VALID,88,VALID,2.61328,
2012-05-09, 02:49:04,VALID,1009.74,VALID,0.5,VALID,104,VALID,0,VALID,22.9926,VALID,88,VALID,2.04805,
2012-05-09, 02:50:04,VALID,1009.77,VALID,0,VALID,104,VALID,0,VALID,22.9926,VALID,22,VALID,1.0793,
2012-05-09, 02:51:04,VALID,1009.89,VALID,0,VALID,104,VALID,0,VALID,23.0121,VALID,299,VALID,1.37305,
2012-05-09, 02:52:04,VALID,1009.9,VALID,0,VALID,104,VALID,0,VALID,23.0316,VALID,325,VALID,1.50781,
2012-05-09, 02:53:04,VALID,1009.9,VALID,0,VALID,104,VALID,0.112112,VALID,23.0121,VALID,337,VALID,1.98281,
2012-05-09, 02:54:04,VALID,1009.87,VALID,0,VALID,104,VALID,0,VALID,22.9714,VALID,335,VALID,0.932813,
2012-05-09, 02:55:04,VALID,1009.84,VALID,0,VALID,104,VALID,0,VALID,22.9926,VALID,341,VALID,0.399219,
2012-05-09, 02:56:04,VALID,1009.81,VALID,0,VALID,104,VALID,0,VALID,22.9926,VALID,341,VALID,0.116406,
2012-05-09, 02:57:04,VALID,1009.78,VALID,0,VALID,104,VALID,0,VALID,22.9714,VALID,344,VALID,0.741406,
2012-05-09, 02:58:04,VALID,1009.76,VALID,0,VALID,104,VALID,0,VALID,22.9926,VALID,24,VALID,0.882031,
2012-05-09, 02:59:04,VALID,1009.77,VALID,0,VALID,104,VALID,0,VALID,22.9926,VALID,24,VALID,0.596875,
2012-05-09, 03:00:04,VALID,1009.72,VALID,0,VALID,104,VALID,0,VALID,22.9926,VALID,24,VALID,0.402734,
2012-05-09, 03:01:04,VALID,1009.7,VALID,0,VALID,104,VALID,0,VALID,22.9926,VALID,24,VALID,0.179297,
2012-05-09, 03:02:04,VALID,1009.71,VALID,0,VALID,104,VALID,0,VALID,23.0121,VALID,24,VALID,0.246094,
2012-05-09, 03:03:04,VALID,1009.69,VALID,0,VALID,104,VALID,0,VALID,22.9714,VALID,20,VALID,0.904297,
2012-05-09, 03:04:04,VALID,1009.67,VALID,0,VALID,104,VALID,0,VALID,22.9731,VALID,359,VALID,0.485156,
2012-05-09, 03:05:04,VALID,1009.66,VALID,0,VALID,104,VALID,0,VALID,22.9731,VALID,359,VALID,0.135156,
2012-05-09, 03:06:04,VALID,1009.69,VALID,0,VALID,104,VALID,0,VALID,22.9324,VALID,359,VALID,0.335547,
2012-05-09, 03:07:04,VALID,1009.7,VALID,0,VALID,104,VALID,0,VALID,22.9342,VALID,359,VALID,0.452734,
2012-05-09, 03:08:04,VALID,1009.75,VALID,0,VALID,104,VALID,0.112112,VALID,22.874,VALID,13,VALID,0.808203,
2012-05-09, 03:09:04,VALID,1009.76,VALID,0,VALID,104,VALID,0,VALID,22.8545,VALID,17,VALID,0.794922,
2012-05-09, 03:10:04,VALID,1009.75,VALID,0,VALID,104,VALID,0.112112,VALID,22.8173,VALID,58,VALID,0.766406,
2012-05-09, 03:11:04,VALID,1009.77,VALID,0.5,VALID,104,VALID,0,VALID,22.8173,VALID,49,VALID,0.459766,
2012-05-09, 03:12:04,VALID,1009.76,VALID,0,VALID,104,VALID,0,VALID,22.7783,VALID,50,VALID,0.602344,
2012-05-09, 03:13:04,VALID,1009.77,VALID,0,VALID,104,VALID,0,VALID,22.7394,VALID,51,VALID,0.539844,
2012-05-09, 03:14:04,VALID,1009.76,VALID,0,VALID,104,VALID,0,VALID,22.7004,VALID,48,VALID,0.223828,
2012-05-09, 03:15:04,VALID,1009.78,VALID,0,VALID,104,VALID,0,VALID,22.7004,VALID,48,VALID,0.137109,
2012-05-09, 03:16:04,VALID,1009.76,VALID,0,VALID,104,VALID,0.112112,VALID,22.6792,VALID,48,VALID,0.389062,
2012-05-09, 03:17:04,VALID,1009.73,VALID,0,VALID,104,VALID,0,VALID,22.6792,VALID,57,VALID,0.537109,
2012-05-09, 03:18:04,VALID,1009.74,VALID,0,VALID,104,VALID,0.112112,VALID,22.6614,VALID,99,VALID,0.788672,
2012-05-09, 03:19:04,VALID,1009.7,VALID,0,VALID,104,VALID,0,VALID,22.6225,VALID,84,VALID,1.09492,
2012-05-09, 03:20:04,VALID,1009.73,VALID,0,VALID,104,VALID,0,VALID,22.5818,VALID,78,VALID,0.722656,
2012-05-09, 03:21:04,VALID,1009.76,VALID,0,VALID,104,VALID,0.112112,VALID,22.5623,VALID,49,VALID,0.846875,
2012-05-09, 03:22:04,VALID,1009.77,VALID,0,VALID,104,VALID,0,VALID,22.5623,VALID,34,VALID,0.866797,
2012-05-09, 03:23:04,VALID,1009.77,VALID,0,VALID,104,VALID,0,VALID,22.5835,VALID,32,VALID,0.277734,
2012-05-09, 03:24:04,VALID,1009.76,VALID,0,VALID,104,VALID,0.112112,VALID,22.5835,VALID,32,VALID,0.230469,
2012-05-09, 03:25:04,VALID,1009.7,VALID,0,VALID,104,VALID,0,VALID,22.5835,VALID,32,VALID,0.114844,
2012-05-09, 03:26:04,VALID,1009.69,VALID,0,VALID,104,VALID,0.112112,VALID,22.5429,VALID,32,VALID,0.205469,
2012-05-09, 03:27:04,VALID,1009.66,VALID,0,VALID,104,VALID,0,VALID,22.5446,VALID,32,VALID,0,
2012-05-09, 03:28:04,VALID,1009.63,VALID,0,VALID,104,VALID,0,VALID,22.564,VALID,32,VALID,0.003125,
2012-05-09, 03:29:04,VALID,1009.62,VALID,0,VALID,104,VALID,0,VALID,22.5835,VALID,32,VALID,0.24375,
2012-05-09, 03:30:04,VALID,1009.64,VALID,0,VALID,104,VALID,0,VALID,22.603,VALID,32,VALID,0,
2012-05-09, 03:31:04,VALID,1009.68,VALID,0,VALID,104,VALID,0,VALID,22.603,VALID,32,VALID,0,
2012-05-09, 03:32:04,VALID,1009.7,VALID,0,VALID,104,VALID,0,VALID,22.603,VALID,32,VALID,0,
2012-05-09, 03:33:04,VALID,1009.74,VALID,0,VALID,104,VALID,0,VALID,22.603,VALID,32,VALID,0,
2012-05-09, 03:34:04,VALID,1009.75,VALID,0,VALID,104,VALID,0,VALID,22.6225,VALID,32,VALID,0,
2012-05-09, 03:35:04,VALID,1009.78,VALID,0,VALID,104,VALID,0,VALID,22.6225,VALID,32,VALID,0,
2012-05-09, 03:36:04,VALID,1009.77,VALID,0,VALID,104,VALID,0.112112,VALID,22.642,VALID,32,VALID,0,
2012-05-09, 03:37:04,VALID,1009.76,VALID,0,VALID,104,VALID,0,VALID,22.6208,VALID,32,VALID,0,
2012-05-09, 03:38:04,VALID,1009.72,VALID,0,VALID,104,VALID,0,VALID,22.5818,VALID,32,VALID,0,
2012-05-09, 03:39:04,VALID,1009.71,VALID,0,VALID,104,VALID,0.112112,VALID,22.564,VALID,32,VALID,0,
2012-05-09, 03:40:04,VALID,1009.68,VALID,0,VALID,104,VALID,0,VALID,22.5446,VALID,32,VALID,0,
2012-05-09, 03:41:04,VALID,1009.69,VALID,0,VALID,104,VALID,0,VALID,22.564,VALID,32,VALID,0,
2012-05-09, 03:42:04,VALID,1009.68,VALID,0,VALID,104,VALID,0.112112,VALID,22.5429,VALID,32,VALID,0,
2012-05-09, 03:43:04,VALID,1009.71,VALID,0,VALID,104,VALID,0,VALID,22.5835,VALID,32,VALID,0.279687,
2012-05-09, 03:44:04,VALID,1009.73,VALID,0,VALID,104,VALID,0,VALID,22.6013,VALID,32,VALID,0.149219,
2012-05-09, 03:45:04,VALID,1009.73,VALID,0,VALID,104,VALID,0,VALID,22.6402,VALID,32,VALID,0.233594,
2012-05-09, 03:46:04,VALID,1009.74,VALID,0,VALID,104,VALID,0,VALID,22.6809,VALID,32,VALID,0.270703,
2012-05-09, 03:47:04,VALID,1009.77,VALID,0,VALID,104,VALID,0,VALID,22.7004,VALID,32,VALID,0.315234,
2012-05-09, 03:48:04,VALID,1009.77,VALID,0,VALID,104,VALID,0,VALID,22.7199,VALID,32,VALID,0.0945313,
2012-05-09, 03:49:04,VALID,1009.77,VALID,0,VALID,104,VALID,0,VALID,22.7182,VALID,32,VALID,0,
2012-05-09, 03:50:04,VALID,1009.79,VALID,0,VALID,104,VALID,0,VALID,22.7199,VALID,32,VALID,0.00390625,
2012-05-09, 03:51:04,VALID,1009.78,VALID,0,VALID,104,VALID,0,VALID,22.6987,VALID,32,VALID,0,
2012-05-09, 03:52:04,VALID,1009.78,VALID,0,VALID,104,VALID,0,VALID,22.7199,VALID,32,VALID,0.00117188,
2012-05-09, 03:53:04,VALID,1009.79,VALID,0,VALID,104,VALID,0,VALID,22.7004,VALID,32,VALID,0.555859,
2012-05-09, 03:54:04,VALID,1009.78,VALID,0,VALID,104,VALID,0,VALID,22.6987,VALID,32,VALID,0.617969,
2012-05-09, 03:55:04,VALID,1009.82,VALID,0,VALID,104,VALID,0,VALID,22.6792,VALID,32,VALID,0.562891,
2012-05-09, 03:56:04,VALID,1009.83,VALID,0,VALID,104,VALID,0,VALID,22.7004,VALID,32,VALID,0.54375,
2012-05-09, 03:57:04,VALID,1009.82,VALID,0,VALID,104,VALID,0.112112,VALID,22.7376,VALID,32,VALID,0.372266,